Theta_e
321 319 315 312 310 309 308 307 305 304 305 305 306 307 307 306 306 305 305 305 305 305 305 305 305 305 305 305 305 305 305 305 305 306 305 305 304 305 304 304 304 305
321 319 315 314 313 310 309 308 306 305 305 305 306 306 306 306 305 305 305 305 305 305 305 305 305 305 305 305 305 305 304 305 304 304 304 304 304 304 305 306 307 308
321 317 314 314 312 309 308 308 307 305 304 305 305 305 305 305 305 305 305 305 305 305 306 305 305 305 305 305 304 304 304 304 304 304 304 304 304 305 308 310 310 311
320 317 314 313 311 309 308 307 306 306 305 305 305 305 305 305 305 305 305 306 305 306 306 305 305 305 305 304 304 304 304 304 304 304 304 305 305 307 309 310 311 311
320 318 316 313 311 312 312 309 307 306 305 305 305 305 305 305 305 306 305 306 306 306 306 305 305 305 305 305 305 304 304 304 305 305 305 306 307 307 308 309 310 310
320 319 317 315 312 313 314 311 310 309 306 306 306 305 306 306 306 306 306 306 306 306 306 305 305 305 305 305 305 305 305 305 306 306 306 306 307 307 307 307 308 309
321 319 318 316 313 313 314 311 312 313 309 307 306 306 306 306 306 306 306 306 306 306 306 306 306 306 306 306 306 306 306 306 306 306 306 306 306 306 307 307 307 307
320 319 318 316 314 314 313 310 312 316 313 309 306 306 307 307 307 307 307 306 307 306 306 306 306 306 306 306 307 307 308 308 308 308 307 307 307 306 306 307 307 307
319 319 318 316 315 315 313 310 312 316 315 312 308 307 307 307 307 307 307 307 307 307 307 307 307 307 308 308 308 309 310 311 312 312 312 311 310 309 309 308 308 309
320 319 318 317 316 315 313 312 313 315 316 316 312 308 307 308 308 307 308 308 308 309 309 308 308 308 309 310 310 311 312 313 313 314 315 315 314 314 313 313 312 312
320 320 319 318 317 316 314 314 315 315 316 317 316 312 309 309 310 309 309 309 310 310 310 309 309 310 312 313 314 314 314 314 314 314 314 315 316 316 316 316 315 315
320 320 321 320 317 316 315 315 315 316 316 317 318 316 313 312 312 312 311 311 311 311 311 311 311 312 314 315 316 316 315 315 315 315 315 315 316 316 316 316 316 316
321 321 322 321 319 316 315 315 315 316 316 316 317 317 317 315 315 314 314 313 312 312 312 312 313 314 315 315 316 316 316 315 316 316 316 316 316 315 315 316 317 316
321 321 322 322 320 319 317 316 315 316 316 316 316 318 318 317 316 316 316 315 314 313 313 313 314 315 315 316 316 316 316 316 316 316 316 317 316 315 315 315 315 315
322 322 322 321 321 320 318 317 316 316 316 316 316 317 317 318 317 317 317 316 314 314 314 314 315 315 315 315 316 316 316 317 317 317 317 317 317 317 316 315 315 315
322 322 322 322 321 320 319 317 316 316 316 316 317 317 317 318 318 317 317 316 315 314 315 314 314 314 313 313 314 316 316 317 317 317 317 317 316 316 315 315 315 315
321 321 321 321 321 320 319 318 317 316 315 315 317 317 317 317 316 315 316 316 315 315 315 314 314 314 312 312 313 315 316 317 317 316 316 315 315 315 315 314 315 315
319 320 320 320 320 319 319 319 318 317 316 316 316 316 316 315 314 314 315 316 317 316 314 314 314 313 312 312 314 315 316 316 315 315 314 313 313 312 311 310 309 310
317 318 319 319 319 319 319 319 319 318 318 317 316 315 315 315 315 315 316 317 316 314 313 314 314 313 312 314 315 315 316 316 314 312 310 308 306 305 304 303 303 303
316 317 318 318 318 319 319 319 319 318 318 316 315 315 316 316 316 317 317 317 315 313 313 314 314 312 313 315 316 315 314 312 310 307 305 303 303 302 302 302 302 302
315 316 316 317 317 318 319 319 318 318 317 316 316 316 317 317 317 317 316 315 314 313 313 313 313 314 315 315 315 313 310 307 306 305 304 303 303 303 303 302 302 302
313 314 315 315 316 318 318 319 318 317 316 317 317 317 317 317 317 316 316 315 315 314 314 314 315 315 316 315 313 310 307 306 305 304 304 303 303 303 303 302 302 302
311 313 314 315 315 316 318 318 318 317 317 317 317 317 317 317 316 316 316 316 316 315 315 315 315 315 315 314 310 307 306 306 305 304 304 304 303 303 303 302 302 302
310 311 312 313 314 315 316 316 316 316 316 317 316 315 315 315 316 316 316 316 316 316 315 315 315 315 313 310 308 306 306 306 307 306 305 305 304 303 303 302 302 302
309 309 309 310 311 313 314 315 315 315 316 316 316 315 314 314 315 315 315 315 314 314 315 314 313 311 308 307 307 308 307 307 307 306 305 305 304 303 303 302 302 301
307 308 308 308 308 309 312 314 315 315 316 316 316 315 314 314 314 314 314 314 313 313 312 311 309 308 308 309 308 308 306 306 306 305 305 304 303 303 302 302 302 302
Wind_Speed
8 8 7 6 5 5 6 7 6 6 6 6 8 9 10 9 9 9 10 11 11 11 12 12 12 12 12 13 12 12 13 12 13 13 12 12 12 12 13 14 14 15
12 11 9 9 8 7 7 6 5 6 5 5 7 9 9 9 9 9 9 9 10 10 11 11 11 11 11 12 12 11 12 12 13 13 13 12 13 14 15 16 16 16
14 12 11 11 10 8 7 7 6 5 4 4 6 8 8 9 8 8 8 8 8 9 9 10 10 10 10 10 10 10 11 12 13 14 13 13 14 15 16 17 16 16
14 10 10 12 12 8 7 8 6 4 2 2 5 6 7 8 8 8 8 7 8 8 8 9 9 10 10 10 10 10 11 13 14 14 14 14 14 15 15 15 15 14
22 18 15 15 17 14 6 6 6 4 4 4 4 6 7 8 8 8 8 8 8 8 8 8 9 10 10 10 10 10 11 12 13 13 13 13 13 13 13 13 12 12
24 19 18 18 20 19 12 9 9 6 6 5 5 5 6 7 8 8 8 8 8 8 7 8 8 9 9 9 9 9 10 10 10 10 10 9 10 9 10 10 9 9
20 14 16 20 21 19 16 18 14 8 7 7 5 6 5 6 7 7 7 7 7 7 7 7 7 8 8 9 9 8 8 8 8 8 7 7 7 6 6 6 6 6
18 12 12 19 21 18 19 23 16 9 9 9 7 8 7 7 8 7 8 8 7 8 7 7 7 7 8 8 8 7 7 7 7 7 6 6 5 5 4 4 4 5
18 13 11 16 20 18 22 24 16 10 11 11 10 10 9 9 9 8 9 9 9 9 8 7 6 6 6 6 6 6 6 6 5 5 5 5 4 4 4 3 3 3
19 15 12 14 17 20 24 25 19 14 13 13 13 13 12 11 10 9 10 10 9 9 8 7 6 4 4 4 4 5 4 4 3 2 2 3 2 2 2 2 2 2
19 16 13 13 15 21 27 27 23 18 15 15 16 16 15 14 12 12 11 11 11 10 9 8 6 5 5 5 5 5 5 4 3 2 1 1 1 2 2 1 1 2
18 17 14 13 14 20 27 28 25 21 18 18 18 19 19 18 17 15 14 13 13 12 11 9 7 8 8 6 5 6 7 6 5 4 4 3 4 5 6 6 5 5
18 17 15 14 15 19 23 26 26 24 21 20 19 20 21 22 22 21 19 17 16 15 14 12 11 11 10 8 6 7 8 7 7 8 7 7 7 8 9 9 9 9
17 18 16 15 16 18 20 22 24 24 23 21 19 18 20 23 25 25 24 22 21 20 19 17 15 14 13 11 9 8 7 7 9 10 11 11 10 10 11 11 12 12
15 18 18 17 18 20 21 22 23 23 24 24 23 21 21 24 25 26 26 26 25 24 23 21 19 16 13 11 9 7 7 8 9 9 10 12 12 13 14 13 13 13
12 16 17 19 20 23 25 26 26 25 26 27 27 24 22 22 22 23 25 26 25 25 26 25 24 20 16 14 11 9 9 10 10 10 11 13 14 14 14 13 13 14
7 10 13 16 20 23 26 28 29 29 28 28 26 23 22 21 20 22 24 23 20 23 29 30 27 23 20 19 15 11 12 12 12 12 13 13 13 14 13 13 14 14
5 7 9 11 14 17 20 23 26 29 29 29 28 27 27 26 24 23 23 20 17 19 25 28 25 19 18 18 13 11 12 12 12 12 13 13 14 14 14 14 14 15
7 8 9 10 11 14 17 20 23 24 24 25 26 27 26 25 25 24 21 19 16 15 18 22 22 20 19 15 13 12 12 12 12 12 13 13 12 12 11 11 12 13
10 10 10 11 12 14 16 18 20 20 20 20 21 22 22 22 23 21 18 17 16 13 14 18 21 22 19 16 13 12 11 11 10 10 9 8 7 6 6 6 7 8
11 11 10 11 12 14 15 18 19 20 20 19 19 20 20 21 20 19 17 18 19 18 17 18 20 19 17 14 13 12 10 8 7 7 6 5 3 3 3 3 3 4
9 10 10 11 12 12 14 17 19 20 20 21 22 22 21 20 20 19 17 18 20 20 19 19 19 17 15 14 14 12 10 7 6 6 5 4 3 2 3 3 3 4
7 8 8 10 12 13 14 16 18 19 21 22 23 22 21 21 21 20 18 17 17 18 18 19 18 17 17 16 14 13 10 7 5 4 4 3 4 4 5 5 6 6
5 5 5 6 9 11 15 17 19 20 22 21 21 22 22 21 20 19 18 18 17 18 19 19 19 18 17 16 14 11 8 6 4 4 4 5 6 6 7 8 8 9
7 6 4 4 5 6 10 14 17 20 20 18 19 21 20 18 17 17 17 17 17 18 19 19 19 18 16 15 12 9 7 5 4 4 5 6 8 8 9 9 10 9
10 9 7 6 5 5 6 8 10 12 14 14 16 18 19 18 17 18 18 17 17 17 19 19 18 16 15 13 10 8 6 5 4 5 6 7 8 8 9 9 9 9
Wind_Direction
169 157 150 139 136 122 88 64 59 69 87 113 126 132 131 126 124 122 123 124 123 121 119 117 117 118 119 118 117 118 119 122 124 122 120 119 117 117 118 117 114 113
183 168 162 159 153 138 115 95 80 75 86 123 138 138 138 134 131 130 130 130 130 127 123 119 116 115 115 113 112 113 115 118 118 116 115 118 118 118 117 114 111 111
176 165 160 158 150 137 127 116 95 79 87 130 145 146 145 143 142 141 141 142 140 135 128 121 116 113 111 109 109 111 115 117 115 113 115 117 117 117 116 112 109 109
191 194 186 178 176 168 139 122 110 92 107 154 155 155 154 150 149 147 148 149 147 142 133 124 117 110 106 104 107 111 115 116 113 114 117 117 117 118 117 115 112 110
227 230 214 197 191 193 176 138 151 152 156 183 181 169 163 158 156 153 153 154 150 145 136 127 119 111 107 106 108 111 113 114 114 115 117 117 119 120 119 118 116 114
240 234 215 201 194 203 211 192 193 189 170 189 206 190 177 166 162 158 158 159 154 148 138 130 123 116 113 109 109 110 109 111 111 111 112 111 113 117 118 118 117 116
240 236 224 209 201 208 205 194 201 202 183 195 210 205 196 176 168 164 163 163 158 154 145 136 130 123 121 115 109 104 97 97 98 99 101 98 97 99 102 109 111 108
232 239 241 217 207 206 195 195 204 205 194 203 208 209 207 191 183 174 169 168 165 163 159 152 146 136 130 124 115 107 94 88 85 85 91 91 90 90 86 89 92 88
229 238 238 214 209 207 201 203 209 203 199 206 211 215 216 208 203 192 181 178 174 172 169 165 158 145 137 130 122 115 103 94 84 76 78 79 79 83 83 81 77 75
235 239 231 216 213 209 208 213 216 213 211 212 215 218 218 215 213 207 199 192 186 184 180 176 171 159 154 151 145 139 131 124 111 87 70 61 55 50 60 70 60 52
237 241 243 238 225 212 212 218 222 222 224 223 222 221 219 218 215 212 210 204 200 197 190 185 180 174 173 171 172 174 171 171 177 181 214 306 307 300 302 302 314 320
234 241 249 249 233 216 216 220 223 229 233 231 228 225 223 222 221 218 216 212 212 211 204 199 191 185 188 193 202 207 202 200 211 219 232 257 275 279 275 274 277 278
233 241 249 248 235 224 221 223 226 232 236 237 237 234 232 232 231 229 226 220 218 218 212 206 198 195 196 202 216 220 215 221 235 241 247 255 266 276 273 265 262 262
234 241 247 247 241 235 231 229 232 237 240 245 248 244 240 239 237 237 238 233 227 226 222 213 204 202 203 206 216 225 230 249 261 260 261 260 261 274 278 266 256 255
238 242 245 245 244 242 238 236 241 246 249 255 258 252 245 243 240 239 239 234 226 224 226 223 215 211 213 218 232 255 273 284 288 282 277 273 269 275 279 271 262 262
241 244 244 244 244 246 246 244 245 246 250 258 261 252 242 242 244 246 246 240 232 230 236 235 228 227 229 225 234 270 299 306 305 297 289 285 280 278 277 271 267 267
245 244 246 248 248 251 251 249 247 243 244 251 253 243 238 243 249 258 264 261 253 250 248 244 241 243 235 221 227 268 301 305 300 291 285 281 278 277 276 273 270 267
242 240 244 246 248 252 254 253 250 244 239 241 243 240 241 244 247 254 261 263 262 257 245 236 235 235 220 215 238 279 295 292 285 279 279 280 280 280 278 275 271 267
248 245 244 243 244 250 253 253 249 241 235 238 241 237 233 235 241 246 249 252 254 246 231 223 220 214 212 230 262 276 275 273 271 273 279 281 278 276 272 269 267 264
261 254 249 248 247 247 250 249 243 237 237 236 233 229 227 233 239 239 241 242 231 210 202 207 209 212 225 248 258 250 253 260 263 271 276 272 268 266 263 265 265 263
279 270 261 256 251 246 244 240 235 236 239 235 228 229 235 239 237 233 234 230 211 195 193 203 212 223 234 239 230 226 234 241 245 252 252 249 258 269 276 285 283 277
301 290 279 267 258 247 236 231 233 239 242 238 235 238 238 236 234 230 225 213 202 199 203 210 219 222 216 209 208 214 219 221 226 234 239 253 271 283 299 311 314 308
313 305 292 277 265 250 236 232 237 244 247 244 242 244 241 232 225 217 209 204 202 204 208 212 212 203 194 195 202 209 211 211 222 238 254 275 286 300 312 315 317 319
287 295 299 288 272 255 243 239 239 243 248 246 243 246 244 233 219 207 203 205 205 203 204 204 197 188 186 192 199 203 205 207 226 253 275 287 294 304 310 313 316 318
256 261 272 278 275 261 246 239 236 236 239 236 232 231 228 220 215 211 208 207 203 194 189 188 184 182 185 191 196 199 202 211 233 259 279 292 302 309 314 318 321 321
249 249 250 249 247 251 243 229 220 221 221 216 212 211 207 206 212 212 206 202 195 184 177 177 181 183 186 190 195 201 208 220 239 264 285 300 311 318 324 327 327 326